CW3806 Weather Reports


Display with metric or nautical units.
time (UTC)temp
F
wind
direction
speed
MPH
gust
MPH
rain 1hr
in
rain 24hr
in
rain mn
in
humidity
%
barometer
mb
20260507071104 40 336 2.0 5.0 0.00 0.37 0.00 90 1009.8
20260507070603 40 338 2.0 6.0 0.00 0.37 0.00 90 1009.8
20260507065604 40 334 1.0 6.0 0.00 0.37 0.00 90 1009.8
20260507065103 40 334 2.0 8.0 0.00 0.37 0.00 90 1009.8
20260507064604 40 358 5.0 8.0 0.00 0.37 0.00 91 1009.8
20260507063604 40 318 1.0 10.0 0.00 0.37 0.00 91 1009.8
20260507063104 40 319 2.0 10.0 0.00 0.37 0.00 91 1009.8
20260507061603 40 334 2.0 8.0 0.00 0.37 0.00 92 1009.8
20260507061104 40 315 2.0 8.0 0.00 0.37 0.00 92 1009.8
20260507060604 41 343 2.0 8.0 0.00 0.37 0.00 92 1009.8
20260507055603 41 327 5.0 10.0 0.00 0.37 0.00 92 1009.8
20260507055104 41 337 6.0 10.0 0.00 0.37 0.00 93 1009.8
20260507054604 41 340 2.0 10.0 0.00 0.37 0.00 93 1009.8
20260507054103 41 12 3.0 10.0 0.00 0.37 0.00 93 1009.8
20260507053604 42 316 3.0 9.0 0.00 0.37 0.00 93 1009.8
20260507053104 42 329 3.0 8.0 0.00 0.37 0.00 93 1009.8
20260507052603 42 346 2.0 8.0 0.00 0.37 0.00 93 1009.8
20260507052103 42 357 2.0 14.0 0.00 0.37 0.00 94 1009.8
20260507051604 42 319 5.0 14.0 0.00 0.37 0.00 93 1009.8
20260507051104 43 346 6.0 12.0 0.00 0.37 0.00 94 1009.8
20260507050604 43 13 4.0 12.0 0.00 0.37 0.00 94 1009.8
20260507050103 43 298 5.0 12.0 0.00 0.37 0.00 94 1009.8
20260507045604 43 334 4.0 12.0 0.00 0.37 0.00 94 1009.8
20260507045104 43 11 5.0 9.0 0.00 0.37 0.00 94 1009.8
20260507044603 43 320 5.0 12.0 0.00 0.37 0.00 94 1009.8
20260507042603 44 298 2.0 9.0 0.00 0.37 0.00 94 1009.8
20260507042104 44 285 1.0 8.0 0.00 0.37 0.00 94 1009.8
20260507040103 44 297 1.0 3.0 0.00 0.37 0.00 94 1009.8
20260507035604 44 307 1.0 3.0 0.00 0.37 0.37 94 1009.8
20260507035104 44 276 1.0 3.0 0.00 0.37 0.37 94 1009.8
20260507034604 44 275 1.0 3.0 0.00 0.37 0.37 94 1009.8
20260507033604 44 275 0.0 2.0 0.00 0.37 0.37 94 1009.8
20260507033104 44 275 1.0 2.0 0.00 0.37 0.37 94 1010.1
20260507032605 44 275 0.0 2.0 0.01 0.37 0.37 94 1010.1
20260507032105 45 275 0.0 2.0 0.01 0.37 0.37 94 1010.1
20260507031604 45 275 0.0 6.0 0.01 0.37 0.37 94 1010.1
20260507031105 45 275 1.0 6.0 0.01 0.37 0.37 94 1010.1
20260507030605 45 290 2.0 6.0 0.01 0.37 0.37 94 1010.1
20260507030105 45 272 1.0 7.0 0.01 0.37 0.37 94 1010.1
20260507025605 45 284 2.0 7.0 0.01 0.37 0.37 94 1010.1
20260507025105 44 265 1.0 6.0 0.01 0.37 0.37 94 1010.5
20260507024605 44 260 1.0 2.0 0.01 0.37 0.37 94 1010.5
20260507024105 44 263 0.0 3.0 0.01 0.37 0.37 94 1010.5
20260507023605 44 263 1.0 6.0 0.01 0.37 0.37 94 1010.5
20260507023104 44 263 2.0 6.0 0.01 0.37 0.37 94 1010.5
20260507022605 44 321 0.0 2.0 0.00 0.36 0.36 94 1010.5
20260507022105 44 321 0.0 1.0 0.00 0.36 0.36 94 1010.5
20260507021605 44 321 0.0 1.0 0.00 0.36 0.36 94 1010.5
20260507021105 44 321 0.0 0.0 0.00 0.36 0.36 94 1010.5
20260507020605 44 321 0.0 1.0 0.00 0.36 0.36 94 1010.5
20260507020105 44 321 0.0 1.0 0.00 0.36 0.36 94 1010.5
20260507015605 44 321 0.0 2.0 0.00 0.36 0.36 94 1010.5
20260507015105 43 321 0.0 2.0 0.00 0.36 0.36 94 1010.5
20260507014105 43 323 0.0 1.0 0.00 0.36 0.36 94 1010.5
20260507012604 44 323 1.0 3.0 0.00 0.36 0.36 93 1010.5
20260507012105 44 323 0.0 0.0 0.00 0.36 0.36 94 1010.5
20260507011605 44 323 0.0 0.0 0.00 0.36 0.36 94 1010.5
20260507011105 44 323 0.0 0.0 0.00 0.36 0.36 94 1010.5
20260507010104 44 323 0.0 1.0 0.00 0.36 0.36 94 1009.7
20260507005605 44 323 0.0 1.0 0.00 0.36 0.36 94 1009.7
20260507005105 44 323 0.0 1.0 0.00 0.36 0.36 94 1009.7
20260507004605 44 323 0.0 1.0 0.00 0.36 0.36 94 1009.7
20260507004105 44 323 0.0 0.0 0.00 0.36 0.36 94 1009.7
20260507003105 45 323 0.0 1.0 0.00 0.36 0.36 94 1009.7
20260507002604 45 323 0.0 1.0 0.00 0.36 0.36 94 1009.7
20260507002105 45 323 0.0 2.0 0.00 0.36 0.36 94 1009.7
20260507001604 45 323 1.0 2.0 0.00 0.36 0.36 94 1009.7
20260507001105 45 323 0.0 1.0 0.00 0.36 0.36 94 1009.7
20260507000605 45 323 0.0 1.0 0.00 0.36 0.36 94 1009.7
20260507000104 45 323 0.0 1.0 0.00 0.36 0.36 94 1009.7
20260506235605 45 323 0.0 0.0 0.00 0.36 0.36 94 1009.7
20260506235105 45 323 0.0 0.0 0.00 0.36 0.36 94 1009.6
20260506234605 45 323 0.0 1.0 0.00 0.36 0.36 94 1009.6
20260506233605 45 323 0.0 2.0 0.00 0.36 0.36 94 1009.2
20260506233105 45 323 0.0 3.0 0.00 0.36 0.36 94 1009.2
20260506232605 45 323 2.0 3.0 0.00 0.36 0.36 94 1009.2
20260506232104 45 323 1.0 3.0 0.00 0.36 0.36 94 1009.2
20260506231604 45 323 0.0 3.0 0.00 0.36 0.36 94 1009.2
20260506231104 45 324 0.0 2.0 0.00 0.36 0.36 94 1009.2
20260506230604 45 324 0.0 3.0 0.00 0.36 0.36 94 1007.7
20260506230104 45 324 0.0 5.0 0.00 0.36 0.36 94 1007.7
20260506225605 45 324 1.0 5.0 0.00 0.36 0.36 94 1007.7
20260506224605 45 327 2.0 5.0 0.00 0.36 0.36 94 1007.7
20260506224105 45 333 0.0 5.0 0.00 0.36 0.36 94 1007.7
20260506223605 45 333 2.0 5.0 0.00 0.36 0.36 94 1007.7
20260506223105 45 336 1.0 8.0 0.00 0.36 0.36 94 1007.7
20260506222605 45 333 2.0 10.0 0.00 0.36 0.36 94 1007.7
20260506222105 45 345 5.0 10.0 0.00 0.36 0.36 94 1007.7
20260506221104 45 337 3.0 10.0 0.00 0.36 0.36 94 1007.7
20260506220605 45 326 3.0 10.0 0.00 0.36 0.36 94 1007.7
20260506215604 45 353 2.0 10.0 0.00 0.36 0.36 94 1007.7
20260506215105 45 328 3.0 12.0 0.00 0.41 0.36 94 1007.7
20260506214605 45 321 6.0 12.0 0.00 0.53 0.36 95 1007.7
20260506214105 45 342 5.0 12.0 0.00 0.53 0.36 95 1007.7
20260506213605 45 347 3.0 12.0 0.00 0.53 0.36 95 1007.7
20260506213104 45 339 4.0 12.0 0.00 0.53 0.36 95 1007.7
20260506212605 45 344 5.0 10.0 0.00 0.53 0.36 95 1007.7
20260506212105 45 320 4.0 10.0 0.00 0.53 0.36 95 1007.7
20260506211605 45 343 4.0 10.0 0.00 0.53 0.36 95 1007.7
20260506210106 45 344 5.0 14.0 0.00 0.53 0.36 95 1007.7
20260506205604 45 345 5.0 13.0 0.00 0.53 0.36 95 1007.7
20260506205105 45 323 4.0 13.0 0.00 0.53 0.36 95 1007.7
20260506204605 45 320 5.0 10.0 0.00 0.53 0.36 95 1007.7
20260506204104 45 331 4.0 13.0 0.00 0.53 0.36 95 1007.7
20260506203605 45 348 8.0 13.0 0.00 0.53 0.36 95 1007.7
20260506203105 45 338 2.0 15.0 0.00 0.53 0.36 95 1007.7
20260506202105 46 333 3.0 12.0 0.00 0.53 0.36 95 1007.7
20260506201105 46 320 3.0 8.0 0.00 0.53 0.36 95 1007.2
20260506200605 46 334 3.0 8.0 0.00 0.53 0.36 95 1007.2
20260506195605 46 318 3.0 12.0 0.00 0.53 0.36 95 1007.2
20260506195105 46 336 3.0 12.0 0.00 0.53 0.36 95 1007.2
20260506194604 46 344 7.0 15.0 0.00 0.53 0.36 95 1007.2
20260506194105 46 358 6.0 15.0 0.00 0.53 0.36 95 1007.2
20260506193605 46 347 5.0 12.0 0.00 0.53 0.36 96 1007.2
20260506193104 45 4 3.0 12.0 0.00 0.53 0.36 95 1007.2
20260506192605 45 353 3.0 9.0 0.00 0.53 0.36 95 1007.2
20260506191605 45 357 4.0 12.0 0.00 0.54 0.36 95 1007.2
20260506191105 45 351 6.0 14.0 0.00 0.55 0.36 95 1007.2
20260506190605 45 340 2.0 14.0 0.01 0.56 0.36 95 1007.2
20260506185605 45 349 5.0 13.0 0.01 0.61 0.36 95 1007.2
20260506185105 45 329 4.0 13.0 0.01 0.63 0.36 95 1007.2
20260506184605 46 333 3.0 12.0 0.01 0.63 0.36 95 1007.2
20260506184105 46 333 2.0 12.0 0.01 0.63 0.36 95 1006.3
20260506183105 46 333 5.0 10.0 0.01 0.63 0.36 95 1006.3
20260506182605 46 320 3.0 9.0 0.01 0.63 0.36 95 1006.3
20260506182105 46 321 2.0 8.0 0.01 0.63 0.36 95 1006.3
20260506181605 46 328 2.0 9.0 0.01 0.63 0.36 95 1006.3
20260506181104 46 345 1.0 9.0 0.01 0.63 0.36 95 1006.3
20260506180604 46 343 5.0 9.0 0.00 0.62 0.35 95 1006.3
20260506180105 46 339 3.0 8.0 0.00 0.62 0.35 95 1006.3
20260506175605 47 355 3.0 7.0 0.00 0.62 0.35 95 1006.3
20260506175105 46 340 2.0 7.0 0.00 0.62 0.35 95 1006.3
20260506174604 46 334 2.0 8.0 0.01 0.62 0.35 95 1006.3
20260506174104 46 331 2.0 9.0 0.01 0.62 0.35 95 1006.3
20260506173605 46 334 1.0 9.0 0.01 0.62 0.35 95 1006.1
20260506173105 46 0 3.0 9.0 0.01 0.62 0.35 95 1006.1
20260506172604 46 331 3.0 8.0 0.01 0.62 0.35 95 1006.1
20260506172105 46 350 4.0 9.0 0.01 0.62 0.35 95 1006.1
20260506171104 46 340 3.0 10.0 0.01 0.62 0.35 95 1006.1
20260506170105 46 349 5.0 12.0 0.01 0.62 0.35 95 1006.1
20260506165605 46 345 5.0 10.0 0.01 0.62 0.35 95 1006.1
20260506165104 46 348 3.0 9.0 0.01 0.62 0.35 95 1006.1
20260506164104 45 354 3.0 10.0 0.00 0.61 0.34 95 1006.0
20260506163105 45 3 3.0 8.0 0.00 0.61 0.34 95 1006.0
20260506162105 45 350 3.0 12.0 0.00 0.61 0.34 95 1005.7
20260506161105 45 11 5.0 12.0 0.01 0.61 0.34 95 1005.7
20260506160105 45 348 5.0 10.0 0.01 0.61 0.34 95 1005.7
20260506155605 45 335 2.0 10.0 0.01 0.61 0.34 95 1005.7
20260506155105 45 339 4.0 8.0 0.01 0.61 0.34 95 1005.7
20260506154605 45 351 4.0 10.0 0.02 0.61 0.34 95 1005.7
20260506154105 45 341 5.0 10.0 0.02 0.61 0.34 95 1005.7
20260506153604 46 7 5.0 9.0 0.02 0.61 0.34 95 1005.7
20260506153105 46 344 3.0 9.0 0.02 0.61 0.34 95 1005.7
20260506152605 46 343 4.0 8.0 0.02 0.61 0.34 95 1005.7
20260506151605 46 355 2.0 5.0 0.02 0.61 0.34 95 1005.7
20260506150604 46 328 3.0 9.0 0.01 0.60 0.33 95 1005.6
20260506150104 46 321 3.0 9.0 0.01 0.60 0.33 94 1005.6
20260506145105 46 344 6.0 9.0 0.01 0.60 0.33 95 1005.6
20260506144604 47 346 3.0 8.0 0.00 0.59 0.32 94 1005.6
20260506144105 47 334 3.0 6.0 0.01 0.59 0.32 95 1005.6
20260506143605 47 332 2.0 6.0 0.01 0.59 0.32 95 1005.6
20260506143104 47 341 3.0 6.0 0.01 0.59 0.32 95 1005.6
20260506142605 47 335 2.0 6.0 0.02 0.59 0.32 95 1005.6
20260506142105 47 344 3.0 8.0 0.02 0.59 0.32 94 1005.6
20260506141604 48 343 3.0 8.0 0.02 0.59 0.32 95 1005.6
20260506141104 48 345 2.0 5.0 0.02 0.59 0.32 95 1005.6
20260506140605 48 340 2.0 5.0 0.04 0.59 0.32 94 1005.6
20260506135605 48 349 3.0 5.0 0.06 0.59 0.32 95 1005.6
20260506134605 49 354 3.0 5.0 0.07 0.59 0.32 94 1005.6
20260506134104 49 355 2.0 3.0 0.07 0.58 0.31 94 1005.6
20260506133605 49 185 1.0 3.0 0.09 0.58 0.31 95 1005.6
20260506133105 50 184 1.0 2.0 0.11 0.58 0.31 94 1005.6
20260506132604 50 184 0.0 1.0 0.11 0.57 0.30 95 1005.6
20260506132104 50 184 0.0 1.0 0.12 0.57 0.30 94 1005.6
20260506131604 51 184 0.0 3.0 0.13 0.57 0.30 95 1005.6
20260506131104 51 184 0.0 3.0 0.14 0.57 0.30 94 1005.6
20260506130104 52 184 0.0 0.0 0.11 0.54 0.27 95 1005.6
20260506125604 52 184 0.0 0.0 0.11 0.53 0.26 95 1005.6
20260506125104 52 184 0.0 0.0 0.11 0.53 0.26 95 1005.6
20260506124605 53 184 0.0 1.0 0.11 0.52 0.25 95 1005.6
20260506124105 53 184 0.0 3.0 0.10 0.51 0.24 95 1005.6
20260506123605 53 184 0.0 3.0 0.08 0.49 0.22 95 1005.6
20260506123104 53 184 1.0 3.0 0.06 0.47 0.20 95 1005.6
20260506122604 53 184 1.0 2.0 0.06 0.46 0.19 95 1005.6
20260506122104 53 184 0.0 1.0 0.05 0.45 0.18 95 1005.6
20260506121605 53 184 0.0 2.0 0.04 0.44 0.17 95 1005.6
20260506121104 52 184 0.0 2.0 0.04 0.43 0.16 95 1005.6
20260506120605 52 184 0.0 3.0 0.04 0.43 0.16 95 1005.6
20260506120105 52 184 0.0 3.0 0.04 0.43 0.16 95 1005.6
20260506114605 51 135 1.0 3.0 0.05 0.42 0.14 95 1005.6
20260506114105 51 135 1.0 3.0 0.06 0.42 0.14 95 1005.6
20260506113605 51 135 0.0 3.0 0.07 0.42 0.14 95 1005.6
20260506112604 50 134 1.0 5.0 0.06 0.41 0.13 95 1005.6
20260506112104 50 134 3.0 5.0 0.06 0.41 0.13 95 1005.6
20260506111605 50 134 3.0 5.0 0.07 0.41 0.13 95 1005.6
20260506111104 50 134 1.0 3.0 0.06 0.40 0.12 95 1005.6
20260506110604 50 134 1.0 2.0 0.07 0.40 0.12 95 1005.6
20260506110104 50 134 0.0 2.0 0.08 0.40 0.12 95 1005.6
20260506105605 50 134 1.0 2.0 0.07 0.39 0.11 95 1005.6
20260506105105 50 134 0.0 2.0 0.06 0.38 0.10 95 1005.6
20260506104605 49 134 0.0 1.0 0.06 0.37 0.09 95 1005.6
20260506104104 49 134 0.0 1.0 0.06 0.36 0.08 95 1005.6
20260506103604 49 134 0.0 1.0 0.05 0.35 0.07 94 1005.6
20260506103105 49 134 0.0 0.0 0.05 0.35 0.07 94 1005.7
20260506102604 49 134 0.0 0.0 0.05 0.35 0.07 94 1005.7
20260506102104 49 134 0.0 0.0 0.05 0.35 0.07 94 1005.7
20260506101605 49 134 0.0 0.0 0.04 0.34 0.06 94 1005.7
20260506101105 49 134 0.0 0.0 0.04 0.34 0.06 94 1005.7
20260506095604 49 134 0.0 0.0 0.03 0.32 0.04 94 1005.7
20260506095104 49 134 0.0 0.0 0.03 0.32 0.04 94 1005.7
20260506094105 49 134 0.0 0.0 0.02 0.30 0.02 94 1005.7
20260506093604 49 134 0.0 0.0 0.02 0.30 0.02 94 1005.7
20260506092104 49 134 0.0 0.0 0.02 0.30 0.02 94 1008.1
20260506091605 49 134 0.0 0.0 0.02 0.30 0.02 94 1008.1
20260506090605 49 134 0.0 0.0 0.01 0.29 0.01 94 1008.1
20260506090105 49 134 0.0 0.0 0.01 0.29 0.01 94 1008.1
20260506085104 49 134 0.0 0.0 0.01 0.29 0.01 94 1008.1
20260506084605 48 134 0.0 0.0 0.00 0.28 0.00 94 1008.1
20260506084104 48 134 0.0 3.0 0.00 0.28 0.00 94 1008.1
20260506083605 48 134 0.0 3.0 0.00 0.28 0.00 94 1008.1
20260506083105 48 134 0.0 5.0 0.00 0.28 0.00 94 1008.1
20260506082604 48 134 1.0 5.0 0.00 0.28 0.00 94 1008.1
20260506082105 48 160 1.0 5.0 0.00 0.28 0.00 94 1008.1
20260506081605 48 160 1.0 5.0 0.00 0.28 0.00 94 1008.1
20260506081104 48 160 0.0 6.0 0.00 0.28 0.00 94 1008.1
20260506080605 48 171 2.0 6.0 0.00 0.28 0.00 94 1008.1
20260506080105 48 180 1.0 6.0 0.00 0.28 0.00 94 1008.1
20260506073104 48 34 0.0 1.0 0.00 0.28 0.00 93 1008.1
20260506072605 48 34 0.0 1.0 0.00 0.28 0.00 93 1008.1
20260506072105 48 34 0.0 1.0 0.00 0.28 0.00 93 1008.1